When you browse on this site, cookies collect data to enhance your experience and personalize the content and advertising you see.
Visit our Privacy Policy to learn more. By continuing to use the site, you agree to this use of cookies and data.

Hourly Weather Shaki

Today, 12 July, Sunday

Time Temperature Precipitation Wind Pressure Humidity
00:00 +25°C° 0.3 mm 1 mps 734 mmHg 66%
01:00 +25°C° 0.2 mm 1 mps 733 mmHg 67%
02:00 +24°C° 0.2 mm 1 mps 733 mmHg 69%
03:00 +24°C° 0 mm 1 mps 733 mmHg 71%
04:00 +24°C° 0.2 mm 1 mps 732 mmHg 71%
05:00 +24°C° 0.2 mm 1 mps 732 mmHg 71%
06:00 +24°C° 0.2 mm 1 mps 732 mmHg 71%
07:00 +25°C° 0 mm 1 mps 732 mmHg 68%
08:00 +26°C° 0 mm 1 mps 732 mmHg 66%
09:00 +28°C° 0 mm 1 mps 732 mmHg 59%
10:00 +29°C° 0.1 mm 1 mps 732 mmHg 55%
11:00 +30°C° 0.1 mm 2 mps 732 mmHg 51%
12:00 +31°C° 0.1 mm 2 mps 731 mmHg 47%
13:00 +31°C° 0.2 mm 2 mps 731 mmHg 45%
14:00 +32°C° 0.2 mm 2 mps 730 mmHg 42%
15:00 +34°C° 0.2 mm 2 mps 730 mmHg 40%
16:00 +32°C° 0.1 mm 2 mps 730 mmHg 41%
17:00 +32°C° 0.1 mm 1 mps 729 mmHg 43%
18:00 +32°C° 0.1 mm 1 mps 729 mmHg 44%
19:00 +30°C° 0 mm 1 mps 729 mmHg 47%
20:00 +29°C° 0 mm 1 mps 729 mmHg 49%
21:00 +27°C° 0 mm 2 mps 730 mmHg 52%
22:00 +27°C° 0 mm 2 mps 729 mmHg 52%
23:00 +26°C° 0 mm 2 mps 729 mmHg 53%

Tomorrow, 13 July, Monday

Time Temperature Precipitation Wind Pressure Humidity
00:00 +26°C° 0 mm 2 mps 729 mmHg 53%
01:00 +25°C° 0 mm 2 mps 729 mmHg 54%
02:00 +25°C° 0 mm 2 mps 728 mmHg 55%
03:00 +25°C° 0 mm 1 mps 728 mmHg 56%
04:00 +25°C° 0 mm 1 mps 728 mmHg 56%
05:00 +26°C° 0 mm 1 mps 728 mmHg 55%
06:00 +25°C° 0 mm 0 mps 728 mmHg 55%
07:00 +28°C° 0 mm 1 mps 728 mmHg 52%
08:00 +29°C° 0 mm 1 mps 728 mmHg 49%
09:00 +30°C° 0 mm 2 mps 728 mmHg 45%
10:00 +31°C° 0.1 mm 2 mps 727 mmHg 43%
11:00 +32°C° 0.1 mm 2 mps 727 mmHg 41%
12:00 +34°C° 0.1 mm 3 mps 727 mmHg 39%
13:00 +34°C° 0.1 mm 2 mps 726 mmHg 39%
14:00 +35°C° 0.1 mm 2 mps 726 mmHg 39%
15:00 +35°C° 0.1 mm 2 mps 726 mmHg 39%
16:00 +34°C° 0.2 mm 2 mps 726 mmHg 41%
17:00 +34°C° 0.2 mm 2 mps 726 mmHg 43%
18:00 +34°C° 0.2 mm 2 mps 726 mmHg 44%
19:00 +31°C° 1.1 mm 2 mps 726 mmHg 53%
20:00 +29°C° 1.1 mm 2 mps 726 mmHg 61%
21:00 +27°C° 1.1 mm 1 mps 727 mmHg 70%
22:00 +27°C° 0.8 mm 1 mps 727 mmHg 71%
23:00 +26°C° 0.8 mm 1 mps 727 mmHg 73%

Day after tomorrow, 14 July, Tuesday

Time Temperature Precipitation Wind Pressure Humidity
00:00 +26°C° 0.8 mm 1 mps 727 mmHg 75%
01:00 +26°C° 0.1 mm 1 mps 727 mmHg 75%
02:00 +26°C° 0.1 mm 2 mps 727 mmHg 75%
03:00 +25°C° 0.1 mm 3 mps 727 mmHg 75%
04:00 +25°C° 0 mm 2 mps 728 mmHg 75%
05:00 +26°C° 0 mm 2 mps 728 mmHg 75%
06:00 +26°C° 0 mm 2 mps 728 mmHg 75%
07:00 +26°C° 0.2 mm 2 mps 729 mmHg 73%
08:00 +27°C° 0.2 mm 3 mps 729 mmHg 70%
09:00 +28°C° 0.2 mm 3 mps 729 mmHg 68%
10:00 +29°C° 0.3 mm 3 mps 729 mmHg 63%
11:00 +30°C° 0.3 mm 3 mps 729 mmHg 59%
12:00 +31°C° 0.3 mm 3 mps 729 mmHg 54%
13:00 +33°C° 0.4 mm 3 mps 729 mmHg 51%
14:00 +34°C° 0.4 mm 3 mps 729 mmHg 48%
15:00 +34°C° 0.4 mm 2 mps 729 mmHg 46%
16:00 +34°C° 0.2 mm 2 mps 729 mmHg 46%
17:00 +34°C° 0.2 mm 2 mps 729 mmHg 47%
18:00 +33°C° 0.2 mm 1 mps 730 mmHg 47%
19:00 +31°C° 0.2 mm 1 mps 730 mmHg 50%
20:00 +30°C° 0.2 mm 1 mps 731 mmHg 54%
21:00 +28°C° 0.2 mm 1 mps 731 mmHg 57%
22:00 +27°C° 0.6 mm 1 mps 731 mmHg 63%
23:00 +26°C° 0.6 mm 1 mps 731 mmHg 70%

15 July, Wednesday

Time Temperature Precipitation Wind Pressure Humidity
00:00 +25°C° 0.6 mm 1 mps 731 mmHg 76%
01:00 +25°C° 0 mm 1 mps 732 mmHg 75%
02:00 +25°C° 0 mm 1 mps 732 mmHg 75%
03:00 +24°C° 0 mm 1 mps 732 mmHg 74%
04:00 +25°C° 0 mm 1 mps 732 mmHg 73%
05:00 +25°C° 0 mm 1 mps 732 mmHg 71%
06:00 +26°C° 0 mm 1 mps 733 mmHg 70%
07:00 +27°C° 0.1 mm 1 mps 733 mmHg 67%
08:00 +28°C° 0.1 mm 2 mps 733 mmHg 64%
09:00 +30°C° 0.1 mm 2 mps 733 mmHg 61%
10:00 +31°C° 0.4 mm 3 mps 733 mmHg 57%
11:00 +33°C° 0.4 mm 3 mps 733 mmHg 53%
12:00 +34°C° 0.4 mm 4 mps 733 mmHg 48%
13:00 +35°C° 0.2 mm 3 mps 732 mmHg 46%
14:00 +35°C° 0.2 mm 3 mps 732 mmHg 45%
15:00 +35°C° 0.2 mm 3 mps 732 mmHg 43%
16:00 +35°C° 0 mm 2 mps 732 mmHg 44%
17:00 +34°C° 0 mm 2 mps 732 mmHg 45%
18:00 +34°C° 0 mm 2 mps 732 mmHg 46%
19:00 +31°C° 0.3 mm 2 mps 732 mmHg 54%
20:00 +29°C° 0.3 mm 3 mps 733 mmHg 61%
21:00 +27°C° 0.3 mm 4 mps 733 mmHg 69%
22:00 +27°C° 0.1 mm 4 mps 733 mmHg 71%
23:00 +26°C° 0.1 mm 3 mps 733 mmHg 73%

16 July, Thursday

Time Temperature Precipitation Wind Pressure Humidity
00:00 +26°C° 0.1 mm 3 mps 733 mmHg 75%
01:00 +25°C° 0.5 mm 2 mps 733 mmHg 77%
02:00 +25°C° 0.5 mm 2 mps 732 mmHg 78%
03:00 +25°C° 0.5 mm 1 mps 732 mmHg 80%
04:00 +25°C° 0.5 mm 1 mps 732 mmHg 79%
05:00 +25°C° 0.5 mm 1 mps 733 mmHg 77%
06:00 +26°C° 0.5 mm 1 mps 733 mmHg 76%
07:00 +27°C° 0.3 mm 1 mps 733 mmHg 73%
08:00 +27°C° 0.3 mm 2 mps 732 mmHg 70%
09:00 +28°C° 0.3 mm 2 mps 732 mmHg 67%
10:00 +29°C° 0.6 mm 2 mps 732 mmHg 64%
11:00 +30°C° 0.6 mm 2 mps 732 mmHg 61%
12:00 +31°C° 0.6 mm 2 mps 731 mmHg 59%
13:00 +31°C° 0.3 mm 3 mps 731 mmHg 56%
14:00 +33°C° 0.3 mm 3 mps 731 mmHg 53%
15:00 +34°C° 0.3 mm 3 mps 731 mmHg 51%
16:00 +32°C° 0.1 mm 2 mps 730 mmHg 52%
17:00 +32°C° 0.1 mm 2 mps 730 mmHg 53%
18:00 +32°C° 0.1 mm 2 mps 730 mmHg 54%
19:00 +31°C° 0.1 mm 2 mps 730 mmHg 56%
20:00 +30°C° 0.1 mm 2 mps 731 mmHg 59%
21:00 +29°C° 0.1 mm 2 mps 731 mmHg 61%
22:00 +28°C° 0.6 mm 2 mps 731 mmHg 66%
23:00 +27°C° 0.6 mm 2 mps 731 mmHg 71%

17 July, Friday

Time Temperature Precipitation Wind Pressure Humidity
00:00 +26°C° 0.6 mm 2 mps 730 mmHg 76%
01:00 +26°C° 0.6 mm 1 mps 730 mmHg 75%
02:00 +25°C° 0.6 mm 1 mps 730 mmHg 75%
03:00 +25°C° 0.6 mm 1 mps 730 mmHg 75%
04:00 +25°C° 0.3 mm 1 mps 730 mmHg 74%
05:00 +26°C° 0.3 mm 1 mps 730 mmHg 74%
06:00 +26°C° 0.3 mm 1 mps 731 mmHg 74%
07:00 +27°C° 0.1 mm 1 mps 731 mmHg 70%
08:00 +28°C° 0.1 mm 2 mps 730 mmHg 65%
09:00 +29°C° 0.1 mm 2 mps 730 mmHg 61%
10:00 +30°C° 0 mm 2 mps 730 mmHg 58%
11:00 +31°C° 0 mm 2 mps 730 mmHg 55%
12:00 +32°C° 0 mm 2 mps 730 mmHg 52%
13:00 +32°C° 0 mm 2 mps 730 mmHg 50%
14:00 +34°C° 0 mm 2 mps 730 mmHg 48%
15:00 +34°C° 0 mm 2 mps 730 mmHg 46%
16:00 +34°C° 0 mm 2 mps 730 mmHg 48%
17:00 +33°C° 0 mm 1 mps 730 mmHg 49%
18:00 +32°C° 0 mm 1 mps 730 mmHg 51%
19:00 +31°C° 0.3 mm 2 mps 730 mmHg 54%
20:00 +30°C° 0.3 mm 2 mps 731 mmHg 57%
21:00 +28°C° 0.3 mm 3 mps 731 mmHg 60%
22:00 +28°C° 0.2 mm 3 mps 731 mmHg 63%
23:00 +27°C° 0.2 mm 3 mps 731 mmHg 67%
Show more